DLH453 KLAX-EDDM

Flight info

Callsign DLH453
Flight time N/A
Altitude 35000
Route DOTSS2 CLEEE DCT PKE DCT HIDAT DCT KA27O DCT NABOB DCT KA27S DCT KA33W DCT KK39A DCT KK51G DCT KK54I DCT KG66O DCT GADAV DCT ANCER N795B JANJO/M082F350 NATT KESIX/N0473F350 DCT IBROD DCT NAVSO DCT TOPPA DCT DODEN DCT TABUM DCT BOMBI T104 ROKIL ROKIL1B
Aircraft A343/H-SDE2E3FGHIJ4J5M1RWXY/LB1D1

Departure

Time 2026-05-06 23:40
Airport Los Angeles International Airport (KLAX)

Arrival

Time N/A
Airport Munich Airport (EDDM)
Time Latitude Longitude Altitude Speed Heading
2026-05-06 22:59 33.94262 -118.41111 97 ft 0 kts 83°
2026-05-06 23:18 33.94262 -118.41112 97 ft 0 kts 83°
2026-05-06 23:23 33.94260 -118.41134 97 ft 4 kts 83°
2026-05-06 23:23 33.94257 -118.41167 96 ft 4 kts 83°
2026-05-06 23:24 33.94254 -118.41190 95 ft 4 kts 101°
2026-05-06 23:24 33.94261 -118.41212 94 ft 4 kts 147°
2026-05-06 23:24 33.94282 -118.41223 95 ft 3 kts 173°
2026-05-06 23:24 33.94307 -118.41227 96 ft 2 kts 173°
2026-05-06 23:25 33.94309 -118.41227 96 ft 1 kts 173°
2026-05-06 23:28 33.94295 -118.41225 96 ft 4 kts 173°
2026-05-06 23:29 33.94250 -118.41218 97 ft 9 kts 173°
2026-05-06 23:29 33.94184 -118.41208 99 ft 10 kts 173°
2026-05-06 23:29 33.94118 -118.41198 99 ft 9 kts 173°
2026-05-06 23:29 33.94053 -118.41188 98 ft 10 kts 173°
2026-05-06 23:30 33.93981 -118.41178 99 ft 11 kts 173°
2026-05-06 23:30 33.93899 -118.41165 101 ft 11 kts 173°
2026-05-06 23:30 33.93828 -118.41155 102 ft 9 kts 173°
2026-05-06 23:30 33.93780 -118.41137 103 ft 6 kts 144°
2026-05-06 23:31 33.93767 -118.41100 104 ft 5 kts 99°
2026-05-06 23:31 33.93772 -118.41044 105 ft 9 kts 83°
2026-05-06 23:31 33.93781 -118.40955 104 ft 13 kts 83°
2026-05-06 23:31 33.93792 -118.40837 105 ft 16 kts 82°
2026-05-06 23:32 33.93808 -118.40693 105 ft 19 kts 82°
2026-05-06 23:32 33.93826 -118.40520 104 ft 22 kts 83°
2026-05-06 23:32 33.93846 -118.40322 106 ft 25 kts 83°
2026-05-06 23:32 33.93868 -118.40105 107 ft 26 kts 83°
2026-05-06 23:33 33.93889 -118.39892 107 ft 25 kts 82°
2026-05-06 23:33 33.93910 -118.39683 106 ft 25 kts 83°
2026-05-06 23:33 33.93933 -118.39481 105 ft 24 kts 83°
2026-05-06 23:33 33.93953 -118.39276 103 ft 24 kts 83°
2026-05-06 23:34 33.93971 -118.39081 104 ft 23 kts 82°
2026-05-06 23:34 33.93992 -118.38891 104 ft 23 kts 83°
2026-05-06 23:34 33.94011 -118.38706 105 ft 22 kts 83°
2026-05-06 23:34 33.94025 -118.38529 106 ft 21 kts 86°
2026-05-06 23:35 33.94046 -118.38365 106 ft 20 kts 82°
2026-05-06 23:35 33.94063 -118.38204 106 ft 19 kts 83°
2026-05-06 23:35 33.94074 -118.38097 105 ft 7 kts 83°
2026-05-06 23:35 33.94078 -118.38038 105 ft 5 kts 92°
2026-05-06 23:36 33.94075 -118.38031 106 ft 0 kts 107°
2026-05-06 23:37 33.94073 -118.38027 106 ft 2 kts 110°
2026-05-06 23:37 33.94060 -118.38013 106 ft 3 kts 144°
2026-05-06 23:37 33.94037 -118.38005 108 ft 3 kts 167°
2026-05-06 23:37 33.94012 -118.38002 109 ft 4 kts 178°
2026-05-06 23:38 33.93987 -118.38027 109 ft 6 kts 242°
2026-05-06 23:38 33.93979 -118.38078 111 ft 6 kts 261°
2026-05-06 23:38 33.93978 -118.38091 111 ft 0 kts 263°
2026-05-06 23:39 33.93961 -118.38255 110 ft 49 kts 263°
2026-05-06 23:39 33.93895 -118.38897 106 ft 104 kts 263°
2026-05-06 23:40 33.93788 -118.39944 116 ft 147 kts 263°
2026-05-06 23:40 33.93651 -118.41298 301 ft 166 kts 263°
2026-05-06 23:40 33.93514 -118.42595 1040 ft 154 kts 265°
2026-05-06 23:40 33.93425 -118.43920 1547 ft 166 kts 266°
2026-05-06 23:41 33.93345 -118.45337 2131 ft 176 kts 261°
2026-05-06 23:41 33.92914 -118.46775 2531 ft 188 kts 236°
2026-05-06 23:41 33.92041 -118.47969 2850 ft 204 kts 226°
2026-05-06 23:41 33.90944 -118.49300 2891 ft 238 kts 227°
2026-05-06 23:42 33.89816 -118.50829 3437 ft 247 kts 232°
2026-05-06 23:42 33.88706 -118.52441 4081 ft 252 kts 231°
2026-05-06 23:42 33.87572 -118.54044 4803 ft 253 kts 227°
2026-05-06 23:42 33.86148 -118.55415 5070 ft 272 kts 212°
2026-05-06 23:43 33.84372 -118.56304 5475 ft 284 kts 187°
2026-05-06 23:43 33.82406 -118.56152 6021 ft 286 kts 163°
2026-05-06 23:43 33.80487 -118.55487 6686 ft 287 kts 161°
2026-05-06 23:43 33.78558 -118.54806 7328 ft 290 kts 161°
2026-05-06 23:44 33.76605 -118.54141 7982 ft 293 kts 161°
2026-05-06 23:44 33.74633 -118.53480 8630 ft 295 kts 162°
2026-05-06 23:44 33.72657 -118.52776 9240 ft 296 kts 152°
2026-05-06 23:44 33.71007 -118.51365 9838 ft 289 kts 125°
2026-05-06 23:45 33.69853 -118.49418 10290 ft 295 kts 117°
2026-05-06 23:45 33.68797 -118.47214 10448 ft 314 kts 114°
2026-05-06 23:45 33.67807 -118.44797 10687 ft 331 kts 111°
2026-05-06 23:45 33.66883 -118.42194 10985 ft 346 kts 108°
2026-05-06 23:46 33.65998 -118.39443 11300 ft 360 kts 107°
2026-05-06 23:46 33.65363 -118.36510 11651 ft 367 kts 95°
2026-05-06 23:46 33.65093 -118.33454 12290 ft 371 kts 92°
2026-05-06 23:46 33.64929 -118.30360 13045 ft 371 kts 90°
2026-05-06 23:47 33.64816 -118.27222 13536 ft 380 kts 89°
2026-05-06 23:47 33.64743 -118.24077 14421 ft 376 kts 89°
2026-05-06 23:47 33.64694 -118.20880 14693 ft 389 kts 88°
2026-05-06 23:47 33.64662 -118.17678 15733 ft 379 kts 88°
2026-05-06 23:48 33.64639 -118.14449 15896 ft 396 kts 88°
2026-05-06 23:48 33.64623 -118.11166 16886 ft 386 kts 87°
2026-05-06 23:48 33.64606 -118.07909 17267 ft 399 kts 87°
2026-05-06 23:48 33.64599 -118.04533 17880 ft 402 kts 88°
2026-05-06 23:49 33.64588 -118.01224 18839 ft 395 kts 87°
2026-05-06 23:49 33.64597 -117.97922 19388 ft 398 kts 87°
2026-05-06 23:49 33.64622 -117.94585 20001 ft 399 kts 86°
2026-05-06 23:49 33.64637 -117.91242 20560 ft 403 kts 88°
2026-05-06 23:50 33.64597 -117.87835 20804 ft 416 kts 88°
2026-05-06 23:50 33.64751 -117.80813 21667 ft 422 kts 79°
2026-05-06 23:50 33.65225 -117.77375 22186 ft 425 kts 77°
2026-05-06 23:51 33.65788 -117.73878 22680 ft 428 kts 76°
2026-05-06 23:51 33.66391 -117.70372 23204 ft 431 kts 75°
2026-05-06 23:51 33.67027 -117.66839 23732 ft 433 kts 75°
2026-05-06 23:51 33.67682 -117.63291 24182 ft 436 kts 75°
2026-05-06 23:52 33.68349 -117.59730 24604 ft 439 kts 75°
2026-05-06 23:52 33.69025 -117.56143 25047 ft 441 kts 75°